Time,TemperatureF,DewpointF,PressureIn,WindDirection,WindDirectionDegrees,WindSpeedMPH,WindSpeedGustMPH,Humidity,HourlyPrecipIn,Conditions,Clouds,dailyrainin,SolarRadiationWatts/m^2,SoftwareType,DateUTC
2013-01-21 00:05:00,27.1,22.5,30.29,NE,36,11.0,14.0,82,0.00,,,0.00,0.0,meteohub,2013-01-21 06:05:00,
2013-01-21 00:10:00,27.0,22.3,30.30,NE,39,8.0,14.0,82,0.00,,,0.00,0.0,meteohub,2013-01-21 06:10:00,
2013-01-21 00:15:00,26.4,21.7,30.29,NE,37,8.0,14.0,82,0.00,,,0.00,0.0,meteohub,2013-01-21 06:15:00,
2013-01-21 00:20:00,26.2,21.7,30.29,NE,37,9.0,14.0,83,0.00,,,0.00,0.0,meteohub,2013-01-21 06:20:00,
2013-01-21 00:25:00,26.2,21.7,30.30,NE,46,7.0,12.0,83,0.00,,,0.00,0.0,meteohub,2013-01-21 06:25:00,
2013-01-21 00:30:00,25.9,21.4,30.30,NE,41,9.0,12.0,83,0.00,,,0.00,0.0,meteohub,2013-01-21 06:30:00,
2013-01-21 00:35:00,25.5,21.4,30.30,NNE,33,7.0,11.0,84,0.00,,,0.00,0.0,meteohub,2013-01-21 06:35:00,
2013-01-21 00:40:00,25.3,21.2,30.30,NE,38,6.0,10.0,84,0.00,,,0.00,0.0,meteohub,2013-01-21 06:40:00,
2013-01-21 00:45:00,25.3,21.2,30.30,NE,36,8.0,10.0,84,0.00,,,0.00,0.0,meteohub,2013-01-21 06:45:00,
2013-01-21 00:50:00,25.2,21.0,30.30,NNE,32,5.0,10.0,84,0.00,,,0.00,0.0,meteohub,2013-01-21 06:50:00,
2013-01-21 00:55:00,25.0,20.8,30.30,NNE,31,6.0,10.0,84,0.00,,,0.00,0.0,meteohub,2013-01-21 06:55:00,
2013-01-21 01:00:00,24.8,21.0,30.30,NNE,32,8.0,10.0,85,0.00,,,0.00,0.0,meteohub,2013-01-21 07:00:00,
2013-01-21 01:05:00,24.6,20.8,30.30,NE,37,8.0,10.0,85,0.00,,,0.00,0.0,meteohub,2013-01-21 07:05:00,
2013-01-21 01:11:00,24.6,20.8,30.30,NE,43,7.0,10.0,85,0.00,,,0.00,0.0,meteohub,2013-01-21 07:11:00,
2013-01-21 01:16:00,24.4,20.7,30.30,NE,36,6.0,10.0,85,0.00,,,0.00,0.0,meteohub,2013-01-21 07:16:00,
2013-01-21 01:21:00,24.3,20.5,30.30,NNE,29,5.0,10.0,85,0.00,,,0.00,0.0,meteohub,2013-01-21 07:21:00,
2013-01-21 01:26:00,23.9,20.1,30.30,NNE,24,4.0,9.0,85,0.00,,,0.00,0.0,meteohub,2013-01-21 07:26:00,
2013-01-21 01:31:00,23.5,19.9,30.31,NNE,17,5.0,7.0,86,0.00,,,0.00,0.0,meteohub,2013-01-21 07:31:00,
2013-01-21 01:36:00,23.2,19.6,30.31,NNE,27,3.0,7.0,86,0.00,,,0.00,0.0,meteohub,2013-01-21 07:36:00,
2013-01-21 01:41:00,23.2,19.6,30.31,NNE,21,3.0,7.0,86,0.00,,,0.00,0.0,meteohub,2013-01-21 07:41:00,
2013-01-21 01:47:00,22.8,19.2,30.31,NNE,13,5.0,7.0,86,0.00,,,0.00,0.0,meteohub,2013-01-21 07:47:00,
2013-01-21 01:52:00,22.6,19.0,30.30,North,9,4.0,7.0,86,0.00,,,0.00,0.0,meteohub,2013-01-21 07:52:00,
2013-01-21 01:57:00,22.3,19.0,30.31,North,10,3.0,7.0,87,0.00,,,0.00,0.0,meteohub,2013-01-21 07:57:00,
2013-01-21 02:02:00,22.3,19.0,30.30,North,11,5.0,7.0,87,0.00,,,0.00,0.0,meteohub,2013-01-21 08:02:00,
2013-01-21 02:07:00,22.1,18.9,30.31,North,11,3.0,7.0,87,0.00,,,0.00,0.0,meteohub,2013-01-21 08:07:00,
2013-01-21 02:12:00,22.1,19.0,30.31,North,11,5.0,7.0,88,0.00,,,0.00,0.0,meteohub,2013-01-21 08:12:00,
2013-01-21 02:17:00,22.1,19.0,30.31,North,5,4.0,8.0,88,0.00,,,0.00,0.0,meteohub,2013-01-21 08:17:00,
2013-01-21 02:22:00,21.9,18.9,30.31,North,5,4.0,8.0,88,0.00,,,0.00,0.0,meteohub,2013-01-21 08:22:00,
2013-01-21 02:27:00,21.7,18.7,30.31,North,0,4.0,8.0,88,0.00,,,0.00,0.0,meteohub,2013-01-21 08:27:00,
2013-01-21 02:32:00,21.7,18.7,30.32,North,355,4.0,6.0,88,0.00,,,0.00,0.0,meteohub,2013-01-21 08:32:00,
2013-01-21 02:37:00,21.7,18.7,30.31,North,0,4.0,6.0,88,0.00,,,0.00,0.0,meteohub,2013-01-21 08:37:00,
2013-01-21 02:42:00,21.7,18.7,30.31,North,0,3.0,6.0,88,0.00,,,0.00,0.0,meteohub,2013-01-21 08:42:00,
2013-01-21 02:47:00,21.7,18.7,30.32,North,355,4.0,7.0,88,0.00,,,0.00,0.0,meteohub,2013-01-21 08:47:00,
2013-01-21 02:52:00,21.7,18.7,30.32,North,350,4.0,7.0,88,0.00,,,0.00,0.0,meteohub,2013-01-21 08:52:00,
2013-01-21 02:57:00,21.7,18.7,30.32,NNW,347,4.0,6.0,88,0.00,,,0.00,0.0,meteohub,2013-01-21 08:57:00,
2013-01-21 03:02:00,21.7,18.7,30.32,NNW,344,6.0,6.0,88,0.00,,,0.00,0.0,meteohub,2013-01-21 09:02:00,
2013-01-21 03:07:00,21.7,18.7,30.32,NNW,342,5.0,6.0,88,0.00,,,0.00,0.0,meteohub,2013-01-21 09:07:00,
2013-01-21 03:12:00,21.7,18.7,30.32,North,349,6.0,6.0,88,0.00,,,0.00,0.0,meteohub,2013-01-21 09:12:00,
2013-01-21 03:17:00,21.7,18.7,30.32,NNW,348,6.0,7.0,88,0.00,,,0.00,0.0,meteohub,2013-01-21 09:17:00,
2013-01-21 03:23:00,21.7,18.7,30.32,NNW,341,6.0,7.0,88,0.00,,,0.00,0.0,meteohub,2013-01-21 09:23:00,
2013-01-21 03:28:00,21.6,18.5,30.31,NNW,338,5.0,7.0,88,0.00,,,0.00,0.0,meteohub,2013-01-21 09:28:00,
2013-01-21 03:33:00,21.4,18.7,30.31,NNW,345,5.0,7.0,89,0.00,,,0.00,0.0,meteohub,2013-01-21 09:33:00,
2013-01-21 03:38:00,21.2,18.5,30.31,North,349,3.0,7.0,89,0.00,,,0.00,0.0,meteohub,2013-01-21 09:38:00,
2013-01-21 03:43:00,21.0,18.3,30.31,NNW,348,4.0,6.0,89,0.00,,,0.00,0.0,meteohub,2013-01-21 09:43:00,
2013-01-21 03:48:00,20.8,18.1,30.30,North,350,3.0,6.0,89,0.00,,,0.00,0.0,meteohub,2013-01-21 09:48:00,
2013-01-21 03:53:00,20.7,18.0,30.30,North,355,3.0,6.0,89,0.00,,,0.00,0.0,meteohub,2013-01-21 09:53:00,
2013-01-21 03:58:00,20.7,18.0,30.30,North,5,4.0,5.0,89,0.00,,,0.00,0.0,meteohub,2013-01-21 09:58:00,
2013-01-21 04:03:00,20.7,18.0,30.30,North,5,6.0,7.0,89,0.00,,,0.00,0.0,meteohub,2013-01-21 10:03:00,
2013-01-21 04:09:00,20.7,18.0,30.30,North,0,4.0,7.0,89,0.00,,,0.00,0.0,meteohub,2013-01-21 10:09:00,
2013-01-21 04:11:00,20.7,18.0,30.30,North,355,4.0,7.0,89,0.00,,,0.00,0.0,meteohub,2013-01-21 10:11:00,
2013-01-21 04:17:00,20.7,18.0,30.30,North,351,3.0,6.0,89,0.00,,,0.00,0.0,meteohub,2013-01-21 10:17:00,
2013-01-21 04:26:00,20.5,17.8,30.29,North,350,3.0,6.0,89,0.00,,,0.00,0.0,meteohub,2013-01-21 10:26:00,
2013-01-21 04:32:00,20.5,17.8,30.29,North,350,4.0,5.0,89,0.00,,,0.00,0.0,meteohub,2013-01-21 10:32:00,
2013-01-21 04:37:00,20.3,17.6,30.30,NNW,343,5.0,5.0,89,0.00,,,0.00,0.0,meteohub,2013-01-21 10:37:00,
2013-01-21 04:42:00,20.1,17.4,30.30,NNW,341,5.0,6.0,89,0.00,,,0.00,0.0,meteohub,2013-01-21 10:42:00,
2013-01-21 04:47:00,20.1,17.4,30.30,NNW,338,5.0,6.0,89,0.00,,,0.00,0.0,meteohub,2013-01-21 10:47:00,
2013-01-21 04:52:00,20.1,17.4,30.29,NNW,334,5.0,6.0,89,0.00,,,0.00,0.0,meteohub,2013-01-21 10:52:00,
2013-01-21 04:57:00,19.9,17.2,30.29,NNW,329,5.0,6.0,89,0.00,,,0.00,0.0,meteohub,2013-01-21 10:57:00,
2013-01-21 05:02:00,19.9,17.4,30.30,NNW,332,6.0,7.0,90,0.00,,,0.00,0.0,meteohub,2013-01-21 11:02:00,
2013-01-21 05:07:00,20.3,17.8,30.30,NNW,336,4.0,7.0,90,0.00,,,0.00,0.0,meteohub,2013-01-21 11:07:00,
2013-01-21 05:12:00,20.3,17.8,30.30,NNW,333,5.0,7.0,90,0.00,,,0.00,0.0,meteohub,2013-01-21 11:12:00,
2013-01-21 05:17:00,19.9,17.2,30.29,NNW,333,5.0,7.0,89,0.00,,,0.00,0.0,meteohub,2013-01-21 11:17:00,
2013-01-21 05:23:00,19.8,17.2,30.30,NNW,335,6.0,6.0,90,0.00,,,0.00,0.0,meteohub,2013-01-21 11:23:00,
2013-01-21 05:28:00,19.8,17.2,30.30,NNW,336,4.0,7.0,90,0.00,,,0.00,0.0,meteohub,2013-01-21 11:28:00,
2013-01-21 05:33:00,19.8,17.2,30.30,NNW,335,4.0,7.0,90,0.00,,,0.00,0.0,meteohub,2013-01-21 11:33:00,
2013-01-21 05:38:00,19.8,17.2,30.30,NNW,331,4.0,7.0,90,0.00,,,0.00,0.0,meteohub,2013-01-21 11:38:00,
2013-01-21 05:43:00,19.6,17.1,30.30,NW,326,5.0,6.0,90,0.00,,,0.00,0.0,meteohub,2013-01-21 11:43:00,
2013-01-21 05:48:00,19.6,17.1,30.30,NW,324,4.0,6.0,90,0.00,,,0.00,0.0,meteohub,2013-01-21 11:48:00,
2013-01-21 05:53:00,19.6,17.1,30.30,NW,326,5.0,6.0,90,0.00,,,0.00,0.0,meteohub,2013-01-21 11:53:00,
2013-01-21 05:58:00,19.6,17.1,30.30,NW,326,5.0,6.0,90,0.00,,,0.00,0.0,meteohub,2013-01-21 11:58:00,
2013-01-21 06:03:00,19.6,17.1,30.30,NW,323,4.0,6.0,90,0.00,,,0.00,0.0,meteohub,2013-01-21 12:03:00,
2013-01-21 06:08:00,19.4,16.9,30.30,NW,319,4.0,6.0,90,0.00,,,0.00,0.0,meteohub,2013-01-21 12:08:00,
2013-01-21 06:13:00,19.2,16.7,30.30,NW,319,4.0,6.0,90,0.00,,,0.00,0.0,meteohub,2013-01-21 12:13:00,
2013-01-21 06:18:00,19.0,16.5,30.30,NW,319,4.0,6.0,90,0.00,,,0.00,0.0,meteohub,2013-01-21 12:18:00,
2013-01-21 06:23:00,18.9,16.3,30.30,NW,319,4.0,6.0,90,0.00,,,0.00,0.0,meteohub,2013-01-21 12:23:00,
2013-01-21 06:28:00,18.9,16.3,30.30,NW,319,4.0,5.0,90,0.00,,,0.00,0.0,meteohub,2013-01-21 12:28:00,
2013-01-21 06:33:00,18.7,16.2,30.30,NW,319,3.0,5.0,90,0.00,,,0.00,0.0,meteohub,2013-01-21 12:33:00,
2013-01-21 06:38:00,18.3,15.8,30.31,NW,319,4.0,5.0,90,0.00,,,0.00,0.0,meteohub,2013-01-21 12:38:00,
2013-01-21 06:43:00,18.3,15.8,30.31,NW,319,4.0,5.0,90,0.00,,,0.00,0.0,meteohub,2013-01-21 12:43:00,
2013-01-21 06:48:00,18.1,15.6,30.32,NW,319,4.0,5.0,90,0.00,,,0.00,0.0,meteohub,2013-01-21 12:48:00,
2013-01-21 06:54:00,18.1,15.6,30.31,NW,319,4.0,5.0,90,0.00,,,0.00,0.0,meteohub,2013-01-21 12:54:00,
2013-01-21 06:59:00,18.0,15.4,30.32,NW,319,5.0,5.0,90,0.00,,,0.00,0.0,meteohub,2013-01-21 12:59:00,
2013-01-21 07:04:00,18.0,15.4,30.32,NW,318,5.0,5.0,90,0.00,,,0.00,0.0,meteohub,2013-01-21 13:04:00,
2013-01-21 07:09:00,18.0,15.4,30.32,NW,317,5.0,5.0,90,0.00,,,0.00,0.0,meteohub,2013-01-21 13:09:00,
2013-01-21 07:14:00,18.0,15.4,30.32,NW,317,5.0,5.0,90,0.00,,,0.00,0.0,meteohub,2013-01-21 13:14:00,
2013-01-21 07:19:00,17.8,15.3,30.33,NW,318,5.0,5.0,90,0.00,,,0.00,0.0,meteohub,2013-01-21 13:19:00,
2013-01-21 07:24:00,17.8,15.3,30.32,NW,320,5.0,6.0,90,0.00,,,0.00,0.0,meteohub,2013-01-21 13:24:00,
2013-01-21 07:29:00,18.0,15.4,30.33,NW,321,3.0,6.0,90,0.00,,,0.00,0.0,meteohub,2013-01-21 13:29:00,
2013-01-21 07:34:00,18.0,15.4,30.33,NW,321,4.0,6.0,90,0.00,,,0.00,0.0,meteohub,2013-01-21 13:34:00,
2013-01-21 07:39:00,18.0,15.4,30.33,NW,321,3.0,6.0,90,0.00,,,0.00,0.0,meteohub,2013-01-21 13:39:00,
2013-01-21 07:44:00,18.1,16.0,30.33,NW,321,3.0,5.0,91,0.00,,,0.00,0.0,meteohub,2013-01-21 13:44:00,
2013-01-21 07:50:00,18.1,15.6,30.33,NW,321,3.0,5.0,90,0.00,,,0.00,0.0,meteohub,2013-01-21 13:50:00,
2013-01-21 07:55:00,18.0,15.4,30.33,NW,321,3.0,4.0,90,0.00,,,0.00,0.0,meteohub,2013-01-21 13:55:00,
2013-01-21 08:00:00,17.8,15.3,30.34,NW,321,1.0,4.0,90,0.00,,,0.00,7.0,meteohub,2013-01-21 14:00:00,
2013-01-21 08:05:00,17.6,15.3,30.33,NW,321,2.0,4.0,90,0.00,,,0.00,9.0,meteohub,2013-01-21 14:05:00,
2013-01-21 08:10:00,17.4,15.1,30.33,NW,321,2.0,3.0,90,0.00,,,0.00,12.0,meteohub,2013-01-21 14:10:00,
2013-01-21 08:15:00,17.6,15.3,30.33,NW,321,2.0,3.0,90,0.00,,,0.00,18.0,meteohub,2013-01-21 14:15:00,
2013-01-21 08:20:00,18.0,15.8,30.34,NW,321,1.0,2.0,91,0.00,,,0.00,26.0,meteohub,2013-01-21 14:20:00,
2013-01-21 08:25:00,18.3,16.2,30.34,NW,321,3.0,3.0,91,0.00,,,0.00,37.0,meteohub,2013-01-21 14:25:00,
2013-01-21 08:30:00,18.9,16.7,30.34,NW,321,2.0,3.0,91,0.00,,,0.00,47.0,meteohub,2013-01-21 14:30:00,
2013-01-21 08:35:00,19.2,17.1,30.34,NW,321,1.0,4.0,91,0.00,,,0.00,60.0,meteohub,2013-01-21 14:35:00,
2013-01-21 08:40:00,19.8,17.6,30.34,NW,321,2.0,4.0,91,0.00,,,0.00,72.0,meteohub,2013-01-21 14:40:00,
2013-01-21 08:45:00,20.3,18.1,30.34,NW,321,2.0,4.0,91,0.00,,,0.00,84.0,meteohub,2013-01-21 14:45:00,
2013-01-21 08:50:00,20.8,18.7,30.34,NW,321,0.0,3.0,91,0.00,,,0.00,98.0,meteohub,2013-01-21 14:50:00,
2013-01-21 08:55:00,21.4,18.9,30.35,NW,321,1.0,2.0,90,0.00,,,0.00,113.0,meteohub,2013-01-21 14:55:00,
2013-01-21 09:00:00,21.9,19.4,30.34,NW,321,0.0,2.0,90,0.00,,,0.00,128.0,meteohub,2013-01-21 15:00:00,
2013-01-21 09:05:00,22.5,19.8,30.34,NW,321,0.0,2.0,89,0.00,,,0.00,142.0,meteohub,2013-01-21 15:05:00,
2013-01-21 09:10:00,22.8,20.1,30.34,NW,321,0.0,2.0,89,0.00,,,0.00,167.0,meteohub,2013-01-21 15:10:00,
2013-01-21 09:15:00,23.4,20.3,30.34,NW,321,1.0,1.0,88,0.00,,,0.00,183.0,meteohub,2013-01-21 15:15:00,
2013-01-21 09:20:00,23.7,20.7,30.34,NW,321,2.0,2.0,88,0.00,,,0.00,197.0,meteohub,2013-01-21 15:20:00,
2013-01-21 09:26:00,24.3,21.0,30.35,NW,321,0.0,2.0,87,0.00,,,0.00,209.0,meteohub,2013-01-21 15:26:00,
2013-01-21 09:31:00,25.0,21.7,30.35,NW,321,0.0,2.0,87,0.00,,,0.00,223.0,meteohub,2013-01-21 15:31:00,
2013-01-21 09:36:00,25.3,21.4,30.35,NW,321,2.0,2.0,85,0.00,,,0.00,237.0,meteohub,2013-01-21 15:36:00,
2013-01-21 09:41:00,25.3,21.2,30.35,NW,321,2.0,3.0,84,0.00,,,0.00,251.0,meteohub,2013-01-21 15:41:00,
2013-01-21 09:46:00,25.3,20.8,30.35,NW,321,1.0,3.0,83,0.00,,,0.00,267.0,meteohub,2013-01-21 15:46:00,
2013-01-21 09:51:00,25.5,21.0,30.35,NW,319,1.0,4.0,83,0.00,,,0.00,279.0,meteohub,2013-01-21 15:51:00,
2013-01-21 09:56:00,25.5,21.0,30.35,NW,319,1.0,4.0,83,0.00,,,0.00,294.0,meteohub,2013-01-21 15:56:00,
2013-01-21 10:01:00,26.1,21.4,30.35,NW,319,3.0,4.0,82,0.00,,,0.00,311.0,meteohub,2013-01-21 16:01:00,
2013-01-21 10:06:00,26.1,21.4,30.36,NW,319,2.0,4.0,82,0.00,,,0.00,243.0,meteohub,2013-01-21 16:06:00,
2013-01-21 10:11:00,26.4,21.7,30.36,NW,319,2.0,4.0,82,0.00,,,0.00,360.0,meteohub,2013-01-21 16:11:00,
2013-01-21 10:16:00,27.0,21.6,30.36,NW,317,2.0,4.0,80,0.00,,,0.00,381.0,meteohub,2013-01-21 16:16:00,
2013-01-21 10:21:00,27.1,22.1,30.36,NW,317,0.0,4.0,81,0.00,,,0.00,404.0,meteohub,2013-01-21 16:21:00,
2013-01-21 10:26:00,27.7,22.3,30.36,NW,317,0.0,4.0,80,0.00,,,0.00,417.0,meteohub,2013-01-21 16:26:00,
2013-01-21 10:31:00,27.9,22.3,30.36,NW,317,0.0,3.0,79,0.00,,,0.00,399.0,meteohub,2013-01-21 16:31:00,
2013-01-21 10:36:00,28.6,22.3,30.36,NW,315,2.0,3.0,77,0.00,,,0.00,364.0,meteohub,2013-01-21 16:36:00,
2013-01-21 10:41:00,28.6,22.3,30.36,NW,314,0.0,5.0,77,0.00,,,0.00,443.0,meteohub,2013-01-21 16:41:00,
2013-01-21 10:46:00,29.1,22.5,30.36,NW,314,5.0,5.0,76,0.00,,,0.00,441.0,meteohub,2013-01-21 16:46:00,
2013-01-21 10:52:00,29.1,22.3,30.36,NW,309,0.0,5.0,75,0.00,,,0.00,450.0,meteohub,2013-01-21 16:52:00,
2013-01-21 10:57:00,29.7,22.6,30.36,West,277,5.0,5.0,75,0.00,,,0.00,461.0,meteohub,2013-01-21 16:57:00,
2013-01-21 11:02:00,29.5,22.5,30.36,West,265,1.0,7.0,75,0.00,,,0.00,468.0,meteohub,2013-01-21 17:02:00,
2013-01-21 11:07:00,29.8,22.8,30.36,West,265,6.0,7.0,75,0.00,,,0.00,483.0,meteohub,2013-01-21 17:07:00,
2013-01-21 11:12:00,30.4,23.2,30.35,WSW,252,4.0,9.0,74,0.00,,,0.00,494.0,meteohub,2013-01-21 17:12:00,
2013-01-21 11:17:00,30.4,22.8,30.35,SSW,212,7.0,10.0,73,0.00,,,0.00,501.0,meteohub,2013-01-21 17:17:00,
2013-01-21 11:22:00,30.7,23.2,30.35,SSW,205,7.0,10.0,73,0.00,,,0.00,510.0,meteohub,2013-01-21 17:22:00,
2013-01-21 11:27:00,31.1,22.8,30.33,SSW,211,11.0,13.0,71,0.00,,,0.00,515.0,meteohub,2013-01-21 17:27:00,
2013-01-21 11:32:00,31.5,23.5,30.33,South,186,6.0,13.0,72,0.00,,,0.00,526.0,meteohub,2013-01-21 17:32:00,
2013-01-21 11:37:00,32.0,23.7,30.32,South,188,9.0,15.0,71,0.00,,,0.00,533.0,meteohub,2013-01-21 17:37:00,
2013-01-21 11:42:00,31.8,23.2,30.31,SSW,208,8.0,16.0,70,0.00,,,0.00,540.0,meteohub,2013-01-21 17:42:00,
2013-01-21 11:47:00,32.2,23.5,30.31,SSW,206,8.0,16.0,70,0.00,,,0.00,547.0,meteohub,2013-01-21 17:47:00,
2013-01-21 11:52:00,32.5,23.9,30.30,South,190,13.0,16.0,70,0.00,,,0.00,552.0,meteohub,2013-01-21 17:52:00,
2013-01-21 11:57:00,33.3,24.3,30.30,South,186,9.0,15.0,69,0.00,,,0.00,559.0,meteohub,2013-01-21 17:57:00,
2013-01-21 12:02:00,33.6,23.9,30.30,South,187,3.0,15.0,67,0.00,,,0.00,564.0,meteohub,2013-01-21 18:02:00,
2013-01-21 12:07:00,34.0,24.6,30.30,SSW,205,12.0,15.0,68,0.00,,,0.00,524.0,meteohub,2013-01-21 18:07:00,
2013-01-21 12:12:00,34.2,24.6,30.30,South,188,4.0,15.0,68,0.00,,,0.00,563.0,meteohub,2013-01-21 18:12:00,
2013-01-21 12:17:00,34.7,24.8,30.30,SSW,205,9.0,13.0,67,0.00,,,0.00,578.0,meteohub,2013-01-21 18:17:00,
2013-01-21 12:23:00,34.9,25.0,30.30,SSW,210,5.0,13.0,67,0.00,,,0.00,582.0,meteohub,2013-01-21 18:23:00,
2013-01-21 12:28:00,35.2,25.0,30.30,SSW,205,8.0,12.0,66,0.00,,,0.00,584.0,meteohub,2013-01-21 18:28:00,
2013-01-21 12:33:00,35.8,25.2,30.29,SSW,198,9.0,12.0,65,0.00,,,0.00,587.0,meteohub,2013-01-21 18:33:00,
2013-01-21 12:38:00,36.3,25.3,30.28,SSW,209,10.0,12.0,64,0.00,,,0.00,589.0,meteohub,2013-01-21 18:38:00,
2013-01-21 12:43:00,36.7,25.3,30.27,SSW,203,10.0,12.0,63,0.00,,,0.00,592.0,meteohub,2013-01-21 18:43:00,
2013-01-21 12:48:00,36.9,25.0,30.27,SSW,208,7.0,16.0,62,0.00,,,0.00,594.0,meteohub,2013-01-21 18:48:00,
2013-01-21 12:53:00,37.2,25.3,30.26,SSW,198,9.0,16.0,62,0.00,,,0.00,594.0,meteohub,2013-01-21 18:53:00,
2013-01-21 12:58:00,37.6,25.3,30.25,SSW,198,14.0,16.0,61,0.00,,,0.00,596.0,meteohub,2013-01-21 18:58:00,
2013-01-21 13:03:00,37.8,25.5,30.25,South,184,8.0,18.0,61,0.00,,,0.00,596.0,meteohub,2013-01-21 19:03:00,
2013-01-21 13:08:00,38.1,26.2,30.24,SW,214,12.0,18.0,62,0.00,,,0.00,594.0,meteohub,2013-01-21 19:08:00,
2013-01-21 13:13:00,38.7,26.1,30.24,SSW,207,13.0,18.0,60,0.00,,,0.00,592.0,meteohub,2013-01-21 19:13:00,
2013-01-21 13:18:00,39.0,26.2,30.23,SW,214,14.0,20.0,60,0.00,,,0.00,594.0,meteohub,2013-01-21 19:18:00,
2013-01-21 13:23:00,39.6,26.4,30.23,SW,223,10.0,20.0,59,0.00,,,0.00,591.0,meteohub,2013-01-21 19:23:00,
2013-01-21 13:28:00,39.9,26.8,30.23,SW,229,13.0,20.0,59,0.00,,,0.00,589.0,meteohub,2013-01-21 19:28:00,
2013-01-21 13:33:00,40.6,27.0,30.22,SSW,211,13.0,18.0,58,0.00,,,0.00,589.0,meteohub,2013-01-21 19:33:00,
2013-01-21 13:38:00,40.6,26.6,30.22,SSW,209,10.0,18.0,57,0.00,,,0.00,584.0,meteohub,2013-01-21 19:38:00,
2013-01-21 13:43:00,40.8,26.8,30.22,SW,226,4.0,17.0,57,0.00,,,0.00,578.0,meteohub,2013-01-21 19:43:00,
2013-01-21 13:48:00,41.4,27.3,30.22,SSW,193,9.0,17.0,57,0.00,,,0.00,575.0,meteohub,2013-01-21 19:48:00,
2013-01-21 13:53:00,41.5,27.5,30.22,SW,217,6.0,17.0,57,0.00,,,0.00,571.0,meteohub,2013-01-21 19:53:00,
2013-01-21 13:58:00,42.4,27.9,30.22,SW,219,9.0,13.0,56,0.00,,,0.00,566.0,meteohub,2013-01-21 19:58:00,
2013-01-21 14:04:00,42.4,27.5,30.22,WSW,239,9.0,13.0,55,0.00,,,0.00,561.0,meteohub,2013-01-21 20:04:00,
2013-01-21 14:09:00,42.6,27.5,30.21,SW,233,12.0,13.0,55,0.00,,,0.00,554.0,meteohub,2013-01-21 20:09:00,
2013-01-21 14:14:00,42.8,27.3,30.21,WSW,241,12.0,13.0,54,0.00,,,0.00,552.0,meteohub,2013-01-21 20:14:00,
2013-01-21 14:19:00,43.3,27.9,30.21,SW,221,7.0,14.0,54,0.00,,,0.00,543.0,meteohub,2013-01-21 20:19:00,
2013-01-21 14:24:00,43.7,28.2,30.21,SW,224,10.0,14.0,54,0.00,,,0.00,538.0,meteohub,2013-01-21 20:24:00,
2013-01-21 14:29:00,43.9,27.9,30.21,SSW,213,11.0,14.0,53,0.00,,,0.00,531.0,meteohub,2013-01-21 20:29:00,
2013-01-21 14:34:00,43.9,27.9,30.21,SSW,206,7.0,16.0,53,0.00,,,0.00,522.0,meteohub,2013-01-21 20:34:00,
2013-01-21 14:39:00,44.4,28.4,30.20,SW,227,10.0,16.0,53,0.00,,,0.00,515.0,meteohub,2013-01-21 20:39:00,
2013-01-21 14:44:00,44.8,28.2,30.20,SW,217,7.0,16.0,52,0.00,,,0.00,506.0,meteohub,2013-01-21 20:44:00,
2013-01-21 14:49:00,45.0,27.9,30.19,SSW,208,9.0,12.0,51,0.00,,,0.00,497.0,meteohub,2013-01-21 20:49:00,
2013-01-21 14:54:00,45.1,28.0,30.19,SW,236,7.0,13.0,51,0.00,,,0.00,489.0,meteohub,2013-01-21 20:54:00,
2013-01-21 14:59:00,45.3,28.2,30.19,SSW,195,10.0,13.0,51,0.00,,,0.00,480.0,meteohub,2013-01-21 20:59:00,
2013-01-21 15:04:00,45.3,28.2,30.19,WSW,237,9.0,16.0,51,0.00,,,0.00,471.0,meteohub,2013-01-21 21:04:00,
2013-01-21 15:10:00,45.7,28.6,30.19,SW,223,10.0,16.0,51,0.00,,,0.00,459.0,meteohub,2013-01-21 21:10:00,
2013-01-21 15:15:00,45.9,28.2,30.19,SW,219,9.0,16.0,50,0.00,,,0.00,450.0,meteohub,2013-01-21 21:15:00,
2013-01-21 15:20:00,46.0,28.4,30.18,SSW,194,7.0,16.0,50,0.00,,,0.00,438.0,meteohub,2013-01-21 21:20:00,
2013-01-21 15:25:00,46.2,28.6,30.18,SSW,198,10.0,15.0,50,0.00,,,0.00,427.0,meteohub,2013-01-21 21:25:00,
2013-01-21 15:30:00,46.6,28.9,30.18,SW,218,11.0,17.0,50,0.00,,,0.00,415.0,meteohub,2013-01-21 21:30:00,
2013-01-21 15:35:00,46.6,28.4,30.18,SW,215,11.0,17.0,49,0.00,,,0.00,404.0,meteohub,2013-01-21 21:35:00,
2013-01-21 15:40:00,46.8,29.1,30.18,SW,216,14.0,17.0,50,0.00,,,0.00,392.0,meteohub,2013-01-21 21:40:00,
2013-01-21 15:45:00,46.8,28.6,30.18,SSW,204,11.0,17.0,49,0.00,,,0.00,380.0,meteohub,2013-01-21 21:45:00,
2013-01-21 15:50:00,46.9,28.8,30.17,SW,219,12.0,20.0,49,0.00,,,0.00,366.0,meteohub,2013-01-21 21:50:00,
2013-01-21 15:55:00,47.1,28.9,30.17,SW,216,13.0,16.0,49,0.00,,,0.00,353.0,meteohub,2013-01-21 21:55:00,
2013-01-21 16:00:00,47.1,28.4,30.17,SSW,208,8.0,16.0,48,0.00,,,0.00,339.0,meteohub,2013-01-21 22:00:00,
2013-01-21 16:05:00,47.1,28.9,30.17,SW,226,12.0,16.0,49,0.00,,,0.00,325.0,meteohub,2013-01-21 22:05:00,
2013-01-21 16:10:00,47.1,28.9,30.17,SSW,194,12.0,16.0,49,0.00,,,0.00,313.0,meteohub,2013-01-21 22:10:00,
2013-01-21 16:15:00,47.3,28.6,30.17,SSW,207,15.0,16.0,48,0.00,,,0.00,299.0,meteohub,2013-01-21 22:15:00,
2013-01-21 16:20:00,47.1,28.4,30.17,SW,221,13.0,16.0,48,0.00,,,0.00,283.0,meteohub,2013-01-21 22:20:00,
2013-01-21 16:25:00,47.5,28.8,30.17,SW,225,12.0,15.0,48,0.00,,,0.00,267.0,meteohub,2013-01-21 22:25:00,
2013-01-21 16:30:00,47.5,28.8,30.17,SW,215,9.0,15.0,48,0.00,,,0.00,253.0,meteohub,2013-01-21 22:30:00,
2013-01-21 16:35:00,47.7,28.9,30.17,SW,220,10.0,15.0,48,0.00,,,0.00,236.0,meteohub,2013-01-21 22:35:00,
2013-01-21 16:41:00,47.7,28.4,30.17,SSW,211,9.0,15.0,47,0.00,,,0.00,216.0,meteohub,2013-01-21 22:41:00,
2013-01-21 16:46:00,47.7,28.4,30.17,SW,216,9.0,15.0,47,0.00,,,0.00,200.0,meteohub,2013-01-21 22:46:00,
2013-01-21 16:51:00,47.7,28.4,30.17,SW,217,12.0,15.0,47,0.00,,,0.00,181.0,meteohub,2013-01-21 22:51:00,
2013-01-21 16:56:00,47.5,28.2,30.16,SW,223,10.0,15.0,47,0.00,,,0.00,162.0,meteohub,2013-01-21 22:56:00,
2013-01-21 17:01:00,47.5,28.8,30.16,SW,214,11.0,13.0,48,0.00,,,0.00,142.0,meteohub,2013-01-21 23:01:00,
2013-01-21 17:06:00,47.5,28.2,30.16,SSW,211,8.0,13.0,47,0.00,,,0.00,123.0,meteohub,2013-01-21 23:06:00,
2013-01-21 17:11:00,47.1,27.9,30.16,SSW,203,9.0,13.0,47,0.00,,,0.00,104.0,meteohub,2013-01-21 23:11:00,
2013-01-21 17:16:00,47.1,27.9,30.16,SSW,207,11.0,12.0,47,0.00,,,0.00,88.0,meteohub,2013-01-21 23:16:00,
2013-01-21 17:21:00,46.8,28.0,30.16,SSW,209,10.0,14.0,48,0.00,,,0.00,72.0,meteohub,2013-01-21 23:21:00,
2013-01-21 17:26:00,46.6,27.9,30.15,SSW,207,8.0,14.0,48,0.00,,,0.00,56.0,meteohub,2013-01-21 23:26:00,
2013-01-21 17:31:00,46.2,27.7,30.15,SSW,204,10.0,14.0,48,0.00,,,0.00,44.0,meteohub,2013-01-21 23:31:00,
2013-01-21 17:36:00,46.0,27.9,30.14,SSW,200,9.0,13.0,49,0.00,,,0.00,33.0,meteohub,2013-01-21 23:36:00,
2013-01-21 17:41:00,45.3,27.3,30.14,South,191,7.0,13.0,49,0.00,,,0.00,25.0,meteohub,2013-01-21 23:41:00,
2013-01-21 17:46:00,44.8,27.3,30.14,SSW,195,9.0,13.0,50,0.00,,,0.00,18.0,meteohub,2013-01-21 23:46:00,
2013-01-21 17:51:00,44.1,27.1,30.14,SSW,194,9.0,11.0,51,0.00,,,0.00,12.0,meteohub,2013-01-21 23:51:00,
2013-01-21 17:56:00,43.3,27.0,30.14,SSW,194,8.0,11.0,52,0.00,,,0.00,7.0,meteohub,2013-01-21 23:56:00,
2013-01-21 18:01:00,42.6,26.6,30.14,SSW,194,8.0,11.0,53,0.00,,,0.00,0.0,meteohub,2013-01-22 00:01:00,
2013-01-21 18:06:00,41.9,26.4,30.14,South,190,7.0,11.0,54,0.00,,,0.00,0.0,meteohub,2013-01-22 00:06:00,
2013-01-21 18:12:00,41.2,26.2,30.14,South,190,8.0,10.0,55,0.00,,,0.00,0.0,meteohub,2013-01-22 00:12:00,
2013-01-21 18:17:00,40.6,26.2,30.14,South,190,9.0,9.0,56,0.00,,,0.00,0.0,meteohub,2013-01-22 00:17:00,
2013-01-21 18:22:00,39.9,25.9,30.14,South,191,9.0,9.0,57,0.00,,,0.00,0.0,meteohub,2013-01-22 00:22:00,
2013-01-21 18:27:00,39.6,26.1,30.14,SSW,194,9.0,10.0,58,0.00,,,0.00,0.0,meteohub,2013-01-22 00:27:00,
2013-01-21 18:32:00,39.2,25.7,30.14,SSW,196,9.0,10.0,58,0.00,,,0.00,0.0,meteohub,2013-01-22 00:32:00,
2013-01-21 18:37:00,38.8,25.7,30.14,SSW,197,10.0,10.0,59,0.00,,,0.00,0.0,meteohub,2013-01-22 00:37:00,
2013-01-21 18:42:00,38.3,25.2,30.15,SSW,198,9.0,11.0,59,0.00,,,0.00,0.0,meteohub,2013-01-22 00:42:00,
2013-01-21 18:47:00,37.8,25.2,30.15,SSW,196,9.0,11.0,60,0.00,,,0.00,0.0,meteohub,2013-01-22 00:47:00,
2013-01-21 18:52:00,37.2,25.0,30.15,SSW,197,8.0,11.0,61,0.00,,,0.00,0.0,meteohub,2013-01-22 00:52:00,
2013-01-21 18:57:00,36.7,25.0,30.15,SSW,200,11.0,11.0,62,0.00,,,0.00,0.0,meteohub,2013-01-22 00:57:00,
2013-01-21 19:02:00,36.1,24.8,30.15,SSW,199,9.0,11.0,63,0.00,,,0.00,0.0,meteohub,2013-01-22 01:02:00,
2013-01-21 19:07:00,35.4,24.1,30.15,SSW,202,9.0,11.0,63,0.00,,,0.00,0.0,meteohub,2013-01-22 01:07:00,
2013-01-21 19:12:00,34.7,23.7,30.15,SSW,205,9.0,11.0,64,0.00,,,0.00,0.0,meteohub,2013-01-22 01:12:00,
2013-01-21 19:17:00,34.2,23.5,30.15,SSW,200,10.0,10.0,65,0.00,,,0.00,0.0,meteohub,2013-01-22 01:17:00,
2013-01-21 19:22:00,34.0,23.9,30.16,SSW,205,11.0,11.0,66,0.00,,,0.00,0.0,meteohub,2013-01-22 01:22:00,
2013-01-21 19:27:00,33.6,23.5,30.16,SSW,209,10.0,11.0,66,0.00,,,0.00,0.0,meteohub,2013-01-22 01:27:00,
2013-01-21 19:33:00,33.3,23.5,30.16,SSW,209,9.0,11.0,67,0.00,,,0.00,0.0,meteohub,2013-01-22 01:33:00,
2013-01-21 19:38:00,33.4,24.1,30.16,SSW,209,9.0,11.0,68,0.00,,,0.00,0.0,meteohub,2013-01-22 01:38:00,
2013-01-21 19:43:00,33.3,23.9,30.16,SSW,211,10.0,11.0,68,0.00,,,0.00,0.0,meteohub,2013-01-22 01:43:00,
2013-01-21 19:48:00,33.3,23.9,30.16,SSW,211,9.0,11.0,68,0.00,,,0.00,0.0,meteohub,2013-01-22 01:48:00,
2013-01-21 19:53:00,33.1,23.7,30.17,SSW,210,7.0,11.0,68,0.00,,,0.00,0.0,meteohub,2013-01-22 01:53:00,
2013-01-21 19:58:00,32.7,23.4,30.17,SSW,207,8.0,11.0,68,0.00,,,0.00,0.0,meteohub,2013-01-22 01:58:00,
2013-01-21 20:03:00,32.5,23.5,30.16,SSW,207,8.0,10.0,69,0.00,,,0.00,0.0,meteohub,2013-01-22 02:03:00,
2013-01-21 20:08:00,32.0,23.0,30.16,SSW,209,9.0,10.0,69,0.00,,,0.00,0.0,meteohub,2013-01-22 02:08:00,
2013-01-21 20:13:00,31.6,23.0,30.16,SSW,208,8.0,10.0,70,0.00,,,0.00,0.0,meteohub,2013-01-22 02:13:00,
2013-01-21 20:18:00,31.3,22.6,30.16,SSW,203,8.0,10.0,70,0.00,,,0.00,0.0,meteohub,2013-01-22 02:18:00,
2013-01-21 20:23:00,30.9,22.3,30.16,SSW,204,7.0,10.0,70,0.00,,,0.00,0.0,meteohub,2013-01-22 02:23:00,
2013-01-21 20:28:00,30.7,22.8,30.16,SSW,198,8.0,10.0,72,0.00,,,0.00,0.0,meteohub,2013-01-22 02:28:00,
2013-01-21 20:33:00,30.9,22.6,30.17,SSW,200,7.0,9.0,71,0.00,,,0.00,0.0,meteohub,2013-01-22 02:33:00,
2013-01-21 20:38:00,30.7,22.8,30.17,SSW,205,7.0,9.0,72,0.00,,,0.00,0.0,meteohub,2013-01-22 02:38:00,
2013-01-21 20:43:00,30.6,22.6,30.17,SSW,205,7.0,9.0,72,0.00,,,0.00,0.0,meteohub,2013-01-22 02:43:00,
2013-01-21 20:48:00,30.4,22.5,30.17,SSW,205,6.0,8.0,72,0.00,,,0.00,0.0,meteohub,2013-01-22 02:48:00,
2013-01-21 20:53:00,30.2,22.3,30.17,SSW,205,7.0,7.0,72,0.00,,,0.00,0.0,meteohub,2013-01-22 02:53:00,
2013-01-21 20:58:00,29.8,22.3,30.17,SSW,208,7.0,7.0,73,0.00,,,0.00,0.0,meteohub,2013-01-22 02:58:00,
2013-01-21 21:04:00,29.8,22.6,30.17,SSW,208,7.0,7.0,74,0.00,,,0.00,0.0,meteohub,2013-01-22 03:04:00,
2013-01-21 21:09:00,29.8,22.6,30.17,SSW,208,9.0,9.0,74,0.00,,,0.00,0.0,meteohub,2013-01-22 03:09:00,
2013-01-21 21:14:00,30.0,22.5,30.17,SSW,208,8.0,9.0,73,0.00,,,0.00,0.0,meteohub,2013-01-22 03:14:00,
2013-01-21 21:19:00,29.7,22.5,30.17,SSW,208,8.0,9.0,74,0.00,,,0.00,0.0,meteohub,2013-01-22 03:19:00,
2013-01-21 21:24:00,29.1,21.6,30.17,SSW,211,7.0,9.0,73,0.00,,,0.00,0.0,meteohub,2013-01-22 03:24:00,
2013-01-21 21:29:00,28.6,21.7,30.18,SW,215,6.0,9.0,75,0.00,,,0.00,0.0,meteohub,2013-01-22 03:29:00,
2013-01-21 21:34:00,28.8,22.1,30.18,SW,222,8.0,9.0,76,0.00,,,0.00,0.0,meteohub,2013-01-22 03:34:00,
2013-01-21 21:39:00,28.8,22.1,30.17,SW,222,8.0,9.0,76,0.00,,,0.00,0.0,meteohub,2013-01-22 03:39:00,
2013-01-21 21:44:00,28.6,21.9,30.18,SW,220,9.0,9.0,76,0.00,,,0.00,0.0,meteohub,2013-01-22 03:44:00,
2013-01-21 21:49:00,28.4,21.7,30.17,SW,216,8.0,10.0,76,0.00,,,0.00,0.0,meteohub,2013-01-22 03:49:00,
2013-01-21 21:54:00,28.0,21.4,30.18,SW,216,7.0,10.0,76,0.00,,,0.00,0.0,meteohub,2013-01-22 03:54:00,
2013-01-21 21:59:00,27.7,21.0,30.18,SW,216,7.0,10.0,76,0.00,,,0.00,0.0,meteohub,2013-01-22 03:59:00,
2013-01-21 22:04:00,27.5,21.2,30.18,SW,217,9.0,10.0,77,0.00,,,0.00,0.0,meteohub,2013-01-22 04:04:00,
2013-01-21 22:10:00,27.1,20.8,30.18,SW,217,10.0,10.0,77,0.00,,,0.00,0.0,meteohub,2013-01-22 04:10:00,
2013-01-21 22:15:00,27.3,21.7,30.17,SW,217,9.0,10.0,79,0.00,,,0.00,0.0,meteohub,2013-01-22 04:15:00,
2013-01-21 22:20:00,27.3,21.4,30.17,SW,215,9.0,10.0,78,0.00,,,0.00,0.0,meteohub,2013-01-22 04:20:00,
2013-01-21 22:25:00,27.1,21.2,30.17,SW,214,10.0,10.0,78,0.00,,,0.00,0.0,meteohub,2013-01-22 04:25:00,
2013-01-21 22:30:00,27.3,21.7,30.16,SSW,212,10.0,10.0,79,0.00,,,0.00,0.0,meteohub,2013-01-22 04:30:00,
2013-01-21 22:35:00,27.9,22.3,30.16,SSW,209,11.0,11.0,79,0.00,,,0.00,0.0,meteohub,2013-01-22 04:35:00,
2013-01-21 22:40:00,28.6,22.8,30.15,SSW,210,12.0,12.0,79,0.00,,,0.00,0.0,meteohub,2013-01-22 04:40:00,
2013-01-21 22:45:00,28.9,23.0,30.15,SSW,212,11.0,13.0,78,0.00,,,0.00,0.0,meteohub,2013-01-22 04:45:00,
2013-01-21 22:50:00,28.9,23.0,30.16,SW,217,11.0,13.0,78,0.00,,,0.00,0.0,meteohub,2013-01-22 04:50:00,
2013-01-21 22:55:00,28.8,22.5,30.16,SW,219,9.0,13.0,77,0.00,,,0.00,0.0,meteohub,2013-01-22 04:55:00,
2013-01-21 23:00:00,28.2,22.3,30.16,SW,220,10.0,13.0,78,0.00,,,0.00,0.0,meteohub,2013-01-22 05:00:00,
2013-01-21 23:01:00,28.2,22.6,30.16,SW,218,11.0,13.0,79,0.00,,,0.00,0.0,meteohub,2013-01-22 05:01:00,
2013-01-21 23:07:00,28.4,22.6,30.16,SW,214,10.0,12.0,79,0.00,,,0.00,0.0,meteohub,2013-01-22 05:07:00,
2013-01-21 23:12:00,28.4,22.6,30.16,SSW,213,9.0,12.0,79,0.00,,,0.00,0.0,meteohub,2013-01-22 05:12:00,
2013-01-21 23:17:00,28.2,22.6,30.16,SW,218,8.0,12.0,79,0.00,,,0.00,0.0,meteohub,2013-01-22 05:17:00,
2013-01-21 23:22:00,28.2,22.8,30.16,SW,218,8.0,11.0,80,0.00,,,0.00,0.0,meteohub,2013-01-22 05:22:00,
2013-01-21 23:27:00,28.2,22.6,30.16,SSW,213,7.0,11.0,79,0.00,,,0.00,0.0,meteohub,2013-01-22 05:27:00,
2013-01-21 23:32:00,28.0,22.5,30.16,SSW,211,8.0,10.0,79,0.00,,,0.00,0.0,meteohub,2013-01-22 05:32:00,
2013-01-21 23:37:00,27.9,22.3,30.15,SSW,212,11.0,11.0,79,0.00,,,0.00,0.0,meteohub,2013-01-22 05:37:00,
2013-01-21 23:42:00,27.9,22.8,30.15,SW,217,12.0,12.0,81,0.00,,,0.00,0.0,meteohub,2013-01-22 05:42:00,
2013-01-21 23:47:00,28.2,23.2,30.15,SW,219,12.0,13.0,81,0.00,,,0.00,0.0,meteohub,2013-01-22 05:47:00,
2013-01-21 23:52:00,28.4,23.0,30.15,SW,223,13.0,14.0,80,0.00,,,0.00,0.0,meteohub,2013-01-22 05:52:00,
2013-01-21 23:57:00,29.1,23.7,30.14,SW,220,13.0,14.0,80,0.00,,,0.00,0.0,meteohub,2013-01-22 05:57:00,